User: anonymous   Login
Location: Los Gatos B&B
(42.6926°N, 77.0646°W)
Time: 00:16:22
(UTC-04:00)
Language:

Cosmos 2263 Rocket - Orbit

View from above orbital plane
View from above orbital plane
View from above satellite
View from above satellite

Ground track
Ground track

The orbit data is extracted from the following two-line orbital elements,

1 22803U 93059B   15142.19358438  .00000269  00000-0  15829-3 0  9990
2 22803 070.9916 044.5301 0015123 099.9768 260.3063 14.16713177121064
Epoch (UTC): 22 May 2015 04:38:45
Eccentricity: 0.0015123
inclination: 70.9916°
perigee height: 825 km
apogee height: 847 km
right ascension of ascending node: 44.5301°
argument of perigee: 99.9768°
revolutions per day: 14.16713177
mean anomaly at epoch: 260.3063°
orbit number at epoch: 12106

The dashed part of the orbit path shows where the satellite is in the earth's shadow,  

DLR